Weather History for KHHF - July, 2013

Change the Weather History Date:

Tuesday, July 23, 2013

  Actual Average (KPPA) Record (KPPA)
Temperature  
Mean Temperature 86 °F -  
Max Temperature 97 °F 91 °F 103 °F (1981)
Min Temperature 75 °F 65 °F 57 °F (1970)
Cooling Degree Days 21    
Growing Degree Days 36 (Base 50)    
Moisture  
Dew Point 67 °F    
Average Humidity 54    
Maximum Humidity 81    
Minimum Humidity 33    
Precipitation  
Precipitation 0.00 in - - ()
Sea Level Pressure  
Sea Level Pressure 29.90 in    
Wind  
Wind Speed 12 mph (SSW)    
Max Wind Speed 20 mph    
Max Gust Speed 24 mph    
Visibility 10 miles    
Events      
Averages and records for this station are not official NWS values.
T = Trace of Precipitation, MM = Missing Value Source: NWS Daily Summary

Daily Weather History Graph

Daily Weather History Graph

Search for Another Location

Airport or City:

Trip Planner

Search our weather history database for the weather conditions in past years. The results will help you decide how hot, cold, wet, or windy it might be!

Date:

Astronomy

Jul. 23, 2013 Rise Set
Actual Time 6:42 AM CDT 8:53 PM CDT
Civil Twilight 6:13 AM CDT 9:22 PM CDT
Nautical Twilight 5:38 AM CDT 9:57 PM CDT
Astronomical Twilight 5:00 AM CDT 10:35 PM CDT
Moon 9:28 PM CDT (7/23) 7:49 AM CDT (7/23)
Length of Visible Light 15h 08m
Length of Day
14h 10m
Full, 99% of the Moon is Illuminated
Jul 23
Full
Jul 29
Last Quarter
Aug 6
New
Aug 14
First Quarter
Aug 20
Full

Hourly Weather History & Observations

Time (CDT) Temp. Heat Index Dew Point Humidity Pressure Visibility Wind Dir Wind Speed Gust Speed Precip Events Conditions
12:15 AM 82.8 °F 85.3 °F 67.1 °F 59% 29.94 in 10.0 mi South 10.4 mph - N/A   Clear
12:35 AM 82.6 °F 85.3 °F 67.5 °F 60% 29.94 in 10.0 mi South 13.8 mph - N/A   Clear
12:55 AM 82.4 °F 85.0 °F 67.3 °F 60% 29.93 in 10.0 mi South 19.6 mph - N/A   Clear
1:15 AM 81.7 °F 84.2 °F 67.3 °F 61% 29.92 in 10.0 mi South 18.4 mph 23.0 mph N/A   Clear
1:35 AM 80.6 °F 83.2 °F 67.6 °F 65% 29.92 in 10.0 mi South 15.0 mph - N/A   Clear
1:55 AM 80.6 °F 83.2 °F 67.6 °F 65% 29.92 in 10.0 mi SSW 16.1 mph - N/A   Clear
2:15 AM 80.6 °F 83.2 °F 67.6 °F 65% 29.91 in 10.0 mi SSW 17.3 mph - N/A   Clear
2:35 AM 80.2 °F 82.8 °F 68.0 °F 66% 29.91 in 10.0 mi SSW 19.6 mph 24.2 mph N/A   Clear
2:55 AM 80.1 °F 82.7 °F 68.4 °F 67% 29.91 in 10.0 mi SSW 15.0 mph - N/A   Clear
3:15 AM 79.3 °F - 68.2 °F 69% 29.91 in 10.0 mi SW 9.2 mph - N/A   Clear
3:35 AM 78.1 °F - 68.5 °F 72% 29.91 in 10.0 mi SSW 6.9 mph - N/A   Clear
3:55 AM 77.7 °F - 68.5 °F 73% 29.92 in 10.0 mi SSW 6.9 mph - N/A   Clear
4:15 AM 77.2 °F - 68.9 °F 76% 29.91 in 10.0 mi SSW 5.8 mph - N/A   Clear
4:35 AM 77.5 °F - 68.7 °F 74% 29.91 in 10.0 mi SW 8.1 mph - N/A   Clear
4:55 AM 77.0 °F - 68.9 °F 76% 29.91 in 10.0 mi WSW 5.8 mph - N/A   Clear
5:15 AM 76.1 °F - 68.9 °F 78% 29.91 in 10.0 mi SW 6.9 mph - N/A   Clear
5:35 AM 75.2 °F - 68.9 °F 81% 29.91 in 10.0 mi SW 6.9 mph - N/A   Clear
5:55 AM 75.2 °F - 68.9 °F 81% 29.91 in 10.0 mi SW 6.9 mph - N/A   Clear
6:15 AM 75.2 °F - 68.9 °F 81% 29.91 in 10.0 mi WSW 5.8 mph - N/A   Clear
6:35 AM 75.2 °F - 68.9 °F 81% 29.91 in 10.0 mi Calm Calm - N/A   Clear
6:55 AM 75.2 °F - 68.9 °F 81% 29.91 in 10.0 mi SSW 8.1 mph - N/A   Clear
7:15 AM 76.1 °F - 68.9 °F 78% 29.92 in 10.0 mi SW 5.8 mph - N/A   Clear
7:35 AM 77.0 °F - 68.9 °F 76% 29.91 in 10.0 mi SW 6.9 mph - N/A   Clear
7:55 AM 78.3 °F - 68.9 °F 73% 29.91 in 10.0 mi WSW 8.1 mph - N/A   Clear
8:15 AM 79.9 °F - 69.3 °F 70% 29.92 in 10.0 mi WSW 8.1 mph - N/A   Clear
8:35 AM 81.1 °F 84.5 °F 69.6 °F 68% 29.93 in 10.0 mi West 4.6 mph - N/A   Clear
8:55 AM 81.9 °F 85.6 °F 69.8 °F 67% 29.93 in 10.0 mi SW 8.1 mph - N/A   Clear
9:15 AM 83.3 °F 87.4 °F 69.8 °F 64% 29.93 in 10.0 mi SW 9.2 mph - N/A   Clear
9:35 AM 84.6 °F 88.8 °F 70.0 °F 61% 29.94 in 10.0 mi SW 10.4 mph - N/A   Clear
9:55 AM 86.0 °F 90.7 °F 70.0 °F 59% 29.94 in 10.0 mi SW 10.4 mph 16.1 mph N/A   Clear
10:15 AM 87.8 °F 93.0 °F 70.3 °F 56% 29.94 in 10.0 mi SW 12.7 mph - N/A   Clear
10:35 AM 88.5 °F 93.5 °F 70.2 °F 54% 29.94 in 10.0 mi SW 11.5 mph - N/A   Clear
10:55 AM 90.5 °F 96.0 °F 70.2 °F 51% 29.94 in 10.0 mi SW 15.0 mph - N/A   Clear
11:15 AM 90.5 °F 95.1 °F 69.1 °F 49% 29.94 in 10.0 mi SSW 12.7 mph 16.1 mph N/A   Clear
11:35 AM 91.4 °F 96.3 °F 69.3 °F 48% 29.93 in 10.0 mi SW 11.5 mph - N/A   Clear
11:55 AM 92.7 °F 97.2 °F 68.4 °F 45% 29.92 in 10.0 mi SW 10.4 mph - N/A   Clear
12:15 PM 94.1 °F 95.9 °F 64.4 °F 37% 29.92 in 10.0 mi SW 12.7 mph 18.4 mph N/A   Clear
12:35 PM 95.0 °F 97.4 °F 64.9 °F 37% 29.92 in 10.0 mi SW 10.4 mph 18.4 mph N/A   Clear
12:55 PM 95.4 °F 98.1 °F 65.5 °F 37% 29.92 in 10.0 mi SSW 8.1 mph 17.3 mph N/A   Clear
1:35 PM 95.4 °F 97.6 °F 64.6 °F 36% 29.92 in 10.0 mi SW 6.9 mph 18.4 mph N/A   Clear
1:55 PM 95.7 °F 98.7 °F 65.7 °F 37% 29.91 in 10.0 mi SSW 8.1 mph 16.1 mph N/A   Clear
2:15 PM 95.5 °F 97.9 °F 64.8 °F 36% 29.91 in 10.0 mi SW 12.7 mph 16.1 mph N/A   Clear
2:35 PM 96.8 °F 99.5 °F 64.8 °F 35% 29.90 in 10.0 mi SW 9.2 mph 19.6 mph N/A   Clear
2:55 PM 96.8 °F 99.5 °F 64.8 °F 35% 29.89 in 10.0 mi SSW 16.1 mph - N/A   Clear
3:15 PM 96.8 °F 99.5 °F 65.3 °F 35% 29.89 in 10.0 mi SSW 13.8 mph 18.4 mph N/A   Clear
3:35 PM 97.9 °F 101.5 °F 65.7 °F 35% 29.89 in 10.0 mi South 12.7 mph 19.6 mph N/A   Scattered Clouds
3:55 PM 97.9 °F 100.3 °F 64.0 °F 33% 29.88 in 10.0 mi SSW 17.3 mph - N/A   Clear
4:15 PM 97.7 °F 100.0 °F 64.4 °F 33% 29.88 in 10.0 mi SW 12.7 mph 20.7 mph N/A   Scattered Clouds
4:35 PM 97.5 °F 100.8 °F 65.3 °F 35% 29.87 in 10.0 mi SSW 17.3 mph 21.9 mph N/A   Clear
4:55 PM 97.9 °F 101.5 °F 65.7 °F 35% 29.85 in 10.0 mi SSW 17.3 mph - N/A   Clear
5:15 PM 97.5 °F 100.3 °F 64.8 °F 34% 29.85 in 10.0 mi SSW 16.1 mph 24.2 mph N/A   Clear
5:35 PM 97.9 °F 100.3 °F 64.2 °F 33% 29.84 in 10.0 mi SSW 16.1 mph - N/A   Clear
5:55 PM 97.2 °F 100.2 °F 64.9 °F 35% 29.84 in 10.0 mi SSW 18.4 mph 21.9 mph N/A   Clear
6:15 PM 96.8 °F 99.0 °F 64.2 °F 34% 29.84 in 10.0 mi SSW 11.5 mph 20.7 mph N/A   Clear
6:35 PM 96.8 °F 99.5 °F 64.9 °F 35% 29.85 in 10.0 mi SSW 10.4 mph 18.4 mph N/A   Clear
6:55 PM 96.4 °F 100.0 °F 66.0 °F 37% 29.84 in 10.0 mi SSW 11.5 mph 19.6 mph N/A   Clear
7:15 PM 95.5 °F 98.4 °F 65.5 °F 37% 29.83 in 10.0 mi SSW 16.1 mph - N/A   Clear
7:35 PM 95.4 °F 98.1 °F 65.7 °F 37% 29.84 in 10.0 mi SSW 15.0 mph 18.4 mph N/A   Clear
7:55 PM 95.2 °F 98.3 °F 66.2 °F 38% 29.83 in 10.0 mi SSW 15.0 mph 19.6 mph N/A   Clear
8:15 PM 93.2 °F 96.2 °F 66.0 °F 41% 29.84 in 10.0 mi SSW 11.5 mph - N/A   Clear
8:35 PM 90.7 °F 94.1 °F 67.3 °F 46% 29.84 in 10.0 mi SSW 9.2 mph - N/A   Clear
8:55 PM 89.2 °F 92.8 °F 67.6 °F 49% 29.84 in 10.0 mi SSW 9.2 mph - N/A   Clear
9:15 PM 88.2 °F 91.7 °F 68.0 °F 51% 29.84 in 10.0 mi SSW 10.4 mph - N/A   Clear
9:35 PM 87.8 °F 91.4 °F 68.4 °F 52% 29.86 in 10.0 mi South 9.2 mph - N/A   Clear
9:55 PM 87.8 °F 91.8 °F 68.9 °F 53% 29.85 in 10.0 mi South 10.4 mph - N/A   Clear
10:15 PM 87.1 °F 90.6 °F 68.2 °F 53% 29.86 in 10.0 mi SSW 9.2 mph - N/A   Clear
10:35 PM 87.3 °F 90.9 °F 68.2 °F 53% 29.86 in 10.0 mi SSW 11.5 mph - N/A   Clear
10:55 PM 86.2 °F 89.7 °F 68.5 °F 55% 29.87 in 10.0 mi SSW 9.2 mph - N/A   Clear
11:15 PM 85.3 °F 88.8 °F 68.4 °F 57% 29.87 in 10.0 mi SSW 10.4 mph - N/A   Clear
11:35 PM 85.8 °F 89.1 °F 68.0 °F 55% 29.87 in 10.0 mi SSW 10.4 mph - N/A   Clear
11:55 PM 85.3 °F 88.2 °F 67.3 °F 55% 29.88 in 10.0 mi SW 6.9 mph - N/A   Clear